Moriarty, NM

10:28 AM MDT on August 20, 2017 (GMT -0600)
Moriarty

Weather History for K0E0 - June, 2013

Change the Weather History Date:

Thursday, June 6, 2013

  Actual Average (KABQ) Record (KABQ)
Temperature  
Mean Temperature 61 °F -  
Max Temperature 81 °F 86 °F 101 °F (2010)
Min Temperature 41 °F 55 °F 41 °F (1907)
Degree Days  
Heating Degree Days 4    
Growing Degree Days 11 (Base 50)    
Moisture  
Dew Point 44 °F    
Average Humidity 58    
Maximum Humidity 91    
Minimum Humidity 23    
Precipitation  
Precipitation 0.09 in - - ()
Sea Level Pressure  
Sea Level Pressure 30.17 in    
Wind  
Wind Speed 6 mph (SE)    
Max Wind Speed 23 mph    
Max Gust Speed 28 mph    
Visibility 10 miles    
Events Rain , Thunderstorm    
Averages and records for this station are not official NWS values.
T = Trace of Precipitation, MM = Missing Value Source: NWS Daily Summary

Daily Weather History Graph

Daily Weather History Graph

Search for Another Location

Airport or City:

Trip Planner

Search our weather history database for the weather conditions in past years. The results will help you decide how hot, cold, wet, or windy it might be!

Date:

Astronomy

Jun. 06, 2013 Rise Set
Actual Time 5:50 AM MDT 8:15 PM MDT
Civil Twilight 5:20 AM MDT 8:45 PM MDT
Nautical Twilight 4:44 AM MDT 9:21 PM MDT
Astronomical Twilight 4:04 AM MDT 10:01 PM MDT
Moon 4:29 AM MDT (6/6) 6:42 PM MDT (6/6)
Length of Visible Light 15h 24m
Length of Day
14h 25m
Waning Crescent, 3% of the Moon is Illuminated
Jun 6
Waning Crescent
Jun 8
New
Jun 16
First Quarter
Jun 23
Full
Jun 29
Last Quarter

Hourly Weather History & Observations

Time (MDT) Temp. Windchill Dew Point Humidity Pressure Visibility Wind Dir Wind Speed Gust Speed Precip Events Conditions
12:15 AM 51.8 °F - 42.3 °F 70% 30.19 in 10.0 mi WSW 4.6 mph - N/A   Clear
12:35 AM 51.4 °F - 42.4 °F 71% 30.18 in 10.0 mi Calm Calm - N/A   Clear
12:55 AM 50.7 °F - 42.1 °F 72% 30.17 in 10.0 mi Calm Calm - N/A   Clear
1:15 AM 48.2 °F - 40.3 °F 74% 30.17 in 10.0 mi Calm Calm - N/A   Clear
1:35 AM 47.3 °F - 39.6 °F 74% 30.17 in 10.0 mi Calm Calm - N/A   Clear
1:55 AM 46.9 °F - 40.5 °F 78% 30.16 in 10.0 mi Calm Calm - N/A   Clear
2:15 AM 49.6 °F - 41.4 °F 73% 30.16 in 10.0 mi Calm Calm - N/A   Clear
2:35 AM 47.3 °F - 40.3 °F 77% 30.16 in 10.0 mi Calm Calm - N/A   Clear
2:55 AM 46.2 °F - 39.0 °F 76% 30.16 in 10.0 mi Calm Calm - N/A   Clear
3:15 AM 43.5 °F 40.1 °F 37.2 °F 78% 30.16 in 10.0 mi East 5.8 mph - N/A   Clear
3:35 AM 44.8 °F - 39.7 °F 82% 30.16 in 10.0 mi Calm Calm - N/A   Clear
3:55 AM 44.2 °F - 39.2 °F 82% 30.16 in 10.0 mi Calm Calm - N/A   Clear
4:15 AM 41.7 °F 39.8 °F 36.0 °F 80% 30.17 in 10.0 mi NE 3.5 mph - N/A   Clear
4:35 AM 41.5 °F 38.6 °F 37.4 °F 85% 30.17 in 10.0 mi East 4.6 mph - N/A   Clear
4:55 AM 44.8 °F - 39.0 °F 80% 30.17 in 10.0 mi Calm Calm - N/A   Clear
5:15 AM 43.9 °F 41.3 °F 39.0 °F 83% 30.18 in 10.0 mi East 4.6 mph - N/A   Clear
5:35 AM 45.1 °F 43.7 °F 41.7 °F 88% 30.20 in 10.0 mi East 3.5 mph - N/A   Clear
5:55 AM 47.3 °F - 44.6 °F 90% 30.21 in 10.0 mi ESE 11.5 mph - N/A   Scattered Clouds
6:15 AM 49.3 °F - 46.8 °F 91% 30.21 in 10.0 mi SE 9.2 mph - N/A   Mostly Cloudy
6:35 AM 51.1 °F - 47.7 °F 88% 30.22 in 10.0 mi South 5.8 mph - N/A   Overcast
6:55 AM 51.8 °F - 47.8 °F 86% 30.23 in 10.0 mi South 5.8 mph - N/A   Overcast
7:15 AM 53.4 °F - 47.7 °F 81% 30.23 in 10.0 mi SE 9.2 mph - N/A   Overcast
7:35 AM 54.5 °F - 47.8 °F 78% 30.23 in 10.0 mi SE 9.2 mph - N/A   Overcast
7:55 AM 54.7 °F - 47.7 °F 77% 30.23 in 10.0 mi SE 11.5 mph - N/A   Overcast
8:15 AM 55.9 °F - 47.3 °F 73% 30.23 in 10.0 mi ESE 10.4 mph - N/A   Overcast
8:35 AM 56.3 °F - 46.8 °F 70% 30.24 in 10.0 mi SE 10.4 mph - N/A   Overcast
8:55 AM 57.0 °F - 46.9 °F 69% 30.24 in 10.0 mi ESE 9.2 mph - N/A   Overcast
9:15 AM 58.5 °F - 46.0 °F 63% 30.23 in 10.0 mi ESE 6.9 mph - N/A   Overcast
9:35 AM 59.0 °F - 46.6 °F 63% 30.23 in 10.0 mi SE 11.5 mph - N/A   Overcast
9:55 AM 60.6 °F - 46.2 °F 59% 30.23 in 10.0 mi SE 9.2 mph - N/A   Overcast
10:15 AM 61.2 °F - 46.9 °F 60% 30.23 in 10.0 mi SSE 9.2 mph - N/A   Overcast
10:35 AM 61.5 °F - 46.6 °F 58% 30.23 in 10.0 mi SSE 9.2 mph - N/A   Overcast
10:55 AM 63.1 °F - 46.8 °F 55% 30.22 in 10.0 mi SSE 9.2 mph - N/A   Mostly Cloudy
11:15 AM 64.9 °F - 46.8 °F 52% 30.22 in 10.0 mi SE 8.1 mph - N/A   Scattered Clouds
11:35 AM 65.3 °F - 46.9 °F 51% 30.21 in 10.0 mi SSE 5.8 mph - N/A   Scattered Clouds
11:55 AM 67.3 °F - 46.4 °F 47% 30.20 in 10.0 mi SE 6.9 mph - N/A   Clear
12:15 PM 68.9 °F - 46.0 °F 44% 30.19 in 10.0 mi SSW 6.9 mph - N/A   Clear
12:35 PM 70.0 °F - 45.7 °F 42% 30.19 in 10.0 mi SE 11.5 mph 16.1 mph N/A   Clear
12:55 PM 71.6 °F - 45.0 °F 38% 30.18 in 10.0 mi SSE 10.4 mph - N/A   Clear
1:15 PM 72.7 °F - 43.5 °F 35% 30.17 in 10.0 mi South 11.5 mph 16.1 mph N/A   Clear
1:35 PM 74.3 °F - 43.2 °F 33% 30.16 in 10.0 mi South 11.5 mph 17.3 mph N/A   Clear
1:55 PM 75.7 °F - 42.8 °F 31% 30.16 in 10.0 mi SSE 10.4 mph 16.1 mph N/A   Clear
2:15 PM 77.4 °F - 42.8 °F 29% 30.14 in 10.0 mi SE 11.5 mph 16.1 mph N/A   Clear
2:35 PM 78.3 °F - 42.4 °F 28% 30.14 in 10.0 mi SE 11.5 mph 19.6 mph N/A   Clear
2:55 PM 79.2 °F - 41.7 °F 26% 30.13 in 10.0 mi SE 11.5 mph 18.4 mph N/A   Clear
3:15 PM 80.2 °F - 40.8 °F 25% 30.12 in 10.0 mi ESE 6.9 mph 17.3 mph N/A   Clear
3:35 PM 81.3 °F - 41.5 °F 24% 30.11 in 10.0 mi SE 8.1 mph - N/A   Clear
3:55 PM 78.8 °F - 39.9 °F 25% 30.10 in 10.0 mi SSE 5.8 mph - N/A   Clear
4:15 PM 79.0 °F - 40.3 °F 25% 30.10 in 10.0 mi SE 9.2 mph 16.1 mph N/A   Clear
4:35 PM 78.3 °F - 39.4 °F 25% 30.08 in 10.0 mi SE 10.4 mph - N/A   Clear
4:55 PM 81.5 °F - 39.7 °F 23% 30.08 in 10.0 mi SSE 9.2 mph - N/A   Clear
5:15 PM 79.9 °F - 39.7 °F 24% 30.07 in 10.0 mi SSE 12.7 mph - N/A   Clear
5:35 PM 79.5 °F - 40.8 °F 25% 30.07 in 10.0 mi SSE 11.5 mph - N/A   Clear
5:55 PM 78.3 °F - 40.6 °F 26% 30.06 in 10.0 mi SE 12.7 mph - N/A   Clear
6:15 PM 77.2 °F - 41.2 °F 28% 30.08 in 10.0 mi SSE 13.8 mph - N/A Thunderstorm Mostly Cloudy
6:35 PM 72.5 °F - 50.4 °F 46% 30.07 in 10.0 mi ESE 21.9 mph 27.6 mph N/A Rain Light Rain
6:55 PM 72.7 °F - 49.1 °F 43% 30.10 in 10.0 mi ESE 12.7 mph 20.7 mph N/A Thunderstorm Overcast
7:15 PM 69.4 °F - 40.5 °F 35% 30.14 in 10.0 mi NE 15.0 mph 27.6 mph N/A   Overcast
7:35 PM 59.9 °F - 46.6 °F 61% 30.14 in 7.0 mi ENE 17.3 mph 23.0 mph 0.07 in Rain , Thunderstorm Thunderstorms and Rain
7:55 PM 60.8 °F - 45.9 °F 58% 30.13 in 10.0 mi ENE 18.4 mph - 0.09 in Rain , Thunderstorm Light Thunderstorms and Rain
8:15 PM 65.1 °F - 42.3 °F 43% 30.14 in 10.0 mi ESE 16.1 mph 20.7 mph N/A Thunderstorm Unknown
8:35 PM 65.3 °F - 43.9 °F 46% 30.12 in 10.0 mi East 23.0 mph - N/A   Mostly Cloudy
8:55 PM 64.8 °F - 42.3 °F 44% 30.13 in 10.0 mi East 21.9 mph - N/A   Clear
9:15 PM 63.9 °F - 43.3 °F 47% 30.14 in 10.0 mi East 18.4 mph 24.2 mph N/A   Clear
9:35 PM 64.0 °F - 42.6 °F 46% 30.14 in 10.0 mi East 16.1 mph 25.3 mph N/A Thunderstorm Scattered Clouds
9:55 PM 63.0 °F - 50.5 °F 64% 30.18 in 10.0 mi SE 19.6 mph 25.3 mph N/A Thunderstorm Scattered Clouds
10:15 PM 60.8 °F - 53.8 °F 78% 30.21 in 10.0 mi ESE 9.2 mph - N/A Thunderstorm Scattered Clouds
10:35 PM 60.8 °F - 53.6 °F 77% 30.20 in 10.0 mi ESE 11.5 mph - N/A   Scattered Clouds
10:55 PM 59.9 °F - 53.8 °F 80% 30.20 in 10.0 mi SE 11.5 mph - N/A Thunderstorm Thunderstorm
11:15 PM 59.5 °F - 52.7 °F 78% 30.19 in 10.0 mi ESE 12.7 mph - N/A   Scattered Clouds
11:35 PM 59.7 °F - 52.3 °F 77% 30.22 in 10.0 mi Calm Calm - N/A   Clear
11:55 PM 59.0 °F - 52.0 °F 78% 30.22 in 10.0 mi SSE 4.6 mph - N/A   Clear